Forside
METAR-TAF:

METAR-TAF

Lufthavne :

Baraboo Wisconsin Dells Airport

Baraboo / Wisconsin Dells, Wisconsin, USA

Breddekreds: 43-31-19N, længdekreds: 089-46-15W, højde: 298 m

Aktuelle vejr

Denne rapport blev lavet for 10 minutter siden, kl. 17:55 UTC
Vind 4 kt fra vest
Temperatur 25°C
Fugtighed 50%
Tryk 1020 hPa
Sigt: 16.1 km
skyfri

METAR: KDLL 031755Z AUTO 28004KT 10SM CLR 25/14 A3011 RMK AO2 T02450135 10245 20134

Tid: 13:05 (18:05 UTC)


TAF: fraværende

Vejrobservationer og prognoser fra mere end 4000 lufthavne (METAR og TAF).

De gule og røde prikker repræsenterer de meteorologiske stationer.

Flyt musen over at se navnet på stationen.

Så klik over at se vejr observationer og prognoser.

At skifte det kort: Klik på de grønne knapper med et sort kors for at zoome ind; på den grønne knap med en bindestreg for at zoome ud; eller på de grønne pile for tilstødende kort.


METAR-TAF: